CAPE
541 654 1162 1272 1858 1963 1826 1943 2107 2056 2056 2142 2180 2152 2045 2015 1976 1964 1897 1741 1542 1308 1209 1177 1161 1136 1130 1161 1062 947 901 1012 1171 1171 1159 1104 1026 949 904 1081 1353 1425 1388 1313 1275 1032 1024 800 522 307 246 127 82 66 42 20 12 13 14 32 349 439 568 512 473 580 633 837 753 691 566 671 682 786 414 348 426 457 530 656 451 528 713 856 1054
458 662 1104 1271 1718 2019 1930 1849 2050 2068 2083 2102 2184 2092 2066 2106 2025 1996 1851 1632 1445 1291 1240 1174 1169 1084 1132 1108 1055 925 778 842 850 968 939 951 890 886 865 804 859 998 1166 1213 1223 1056 916 868 613 462 301 158 84 43 29 20 9 3 0 0 249 424 532 450 404 381 424 426 500 758 740 588 632 821 701 663 619 550 498 515 566 119 336 998 1096
454 722 993 1282 1586 1919 1964 1890 2094 1989 2055 2107 2116 2083 2075 2222 2034 1919 1814 1613 1364 1270 1306 1199 1140 1131 1116 1056 952 911 798 755 730 777 883 883 817 876 728 631 773 717 984 1128 1118 1071 933 804 606 402 262 164 93 60 27 9 0 0 0 0 17 370 517 404 252 287 209 313 425 406 414 686 578 645 550 555 509 331 320 374 435 393 375 712 1036
534 727 908 1283 1540 1684 1916 1949 2118 2059 2077 2185 2216 2245 2172 2154 1961 1840 1790 1570 1455 1346 1198 1223 1202 1146 1093 958 858 890 847 762 776 654 734 1023 1223 970 867 832 721 834 978 1031 1071 1012 960 840 554 328 175 84 56 31 1 0 0 0 0 0 0 0 326 445 312 77 0 81 368 388 329 150 411 504 555 430 390 394 474 432 354 271 304 374 678
567 716 911 1267 1499 1577 1831 1974 2140 2151 2224 2231 2292 2236 2134 2082 1922 1809 1744 1572 1424 1368 1285 1289 1280 1186 1103 828 842 874 856 799 714 768 764 953 1108 1094 891 856 870 898 979 1026 992 900 756 578 374 183 79 26 4 0 0 0 0 0 0 0 0 0 0 310 371 102 0 0 353 402 465 366 149 394 410 491 478 229 294 216 176 236 224 281 344
550 706 934 1254 1462 1501 1654 1931 2122 2198 2296 2362 2342 2262 2183 2068 1929 1776 1670 1592 1497 1366 1348 1412 1256 1197 1146 952 945 892 869 773 804 762 755 900 1066 1110 1013 885 939 1026 1022 878 909 812 627 475 279 136 32 0 0 0 0 0 0 0 0 0 0 0 0 0 0 0 0 0 254 418 422 411 406 484 556 376 451 484 393 207 168 168 198 294 283
534 684 956 1259 1430 1450 1556 1860 2185 2186 2258 2361 2349 2256 2189 2012 1925 1771 1650 1637 1493 1437 1389 1438 1259 1181 1091 1033 1048 1035 892 861 865 817 742 789 965 995 851 794 880 976 961 905 808 643 451 329 221 103 13 0 0 0 0 0 0 0 0 0 0 0 0 0 0 0 0 0 141 422 406 428 521 561 620 505 474 274 210 336 326 328 284 262 288
530 705 973 1246 1387 1416 1501 1774 2117 2195 2264 2380 2330 2274 2146 1990 1952 1805 1718 1624 1548 1476 1372 1468 1238 1226 1200 1055 1097 1048 958 940 942 813 738 746 863 906 778 806 932 1009 912 821 721 525 307 188 138 69 4 0 0 0 0 0 0 0 0 0 0 0 0 0 0 0 0 0 393 445 443 450 422 403 577 627 532 502 420 310 134 161 227 195 266
588 759 997 1230 1350 1422 1464 1629 2096 2162 2219 2305 2314 2255 2107 1990 1980 1848 1740 1680 1593 1475 1339 1317 1348 1064 1136 1260 1176 1122 1076 1025 888 808 717 781 779 786 867 851 985 924 840 710 536 364 207 111 45 17 0 0 0 0 0 0 0 0 0 0 0 0 0 0 0 0 0 0 504 518 483 431 496 480 511 515 500 590 824 625 505 305 366 376 321
692 838 1023 1196 1318 1453 1442 1576 2050 2174 2087 2192 2252 2206 2033 1963 1924 1798 1756 1662 1556 1498 1338 1218 1230 1191 1163 1308 1333 1253 1127 1078 981 790 690 743 804 824 870 873 918 872 738 571 278 193 152 49 7 0 0 0 0 0 0 0 0 0 0 0 0 0 0 0 0 0 0 280 461 497 437 405 312 410 498 494 424 532 357 192 222 231 414 402 319
746 868 1026 1167 1272 1446 1450 1567 1945 2061 2127 2157 2154 2169 2005 1930 1854 1743 1660 1591 1508 1484 1209 1246 1237 1131 1111 1292 1292 1341 1308 1198 991 807 726 767 719 882 825 899 839 707 581 396 251 154 104 21 1 2 0 0 0 0 0 0 0 0 0 0 0 0 0 0 0 0 0 0 118 419 358 311 334 362 483 442 476 438 418 369 475 534 448 389 295
752 843 1006 1133 1233 1403 1485 1575 1810 2076 2060 2106 2135 2118 1945 1847 1827 1637 1622 1505 1414 1313 1228 1260 1237 1161 1265 1265 1259 1345 1275 1241 1051 862 830 756 783 805 815 834 759 547 436 283 164 198 90 1 0 0 0 0 0 0 0 0 0 0 0 0 0 0 0 0 0 0 0 0 0 289 245 257 306 359 441 466 510 532 459 364 456 463 377 291 258
809 897 956 1092 1201 1358 1483 1554 1718 1977 2020 2126 2146 2069 1936 1788 1731 1695 1475 1444 1425 1333 1298 1298 1370 1247 1226 1395 1420 1431 1382 1278 1084 842 894 770 705 720 746 709 596 496 320 178 151 40 0 0 0 0 0 0 0 0 0 0 0 0 0 0 0 0 0 0 0 0 0 0 0 0 187 193 239 619 570 509 451 360 385 376 370 387 343 227 213
822 890 934 1028 1141 1322 1464 1538 1668 1850 1950 2006 2120 2068 1961 1834 1742 1647 1426 1580 1529 1514 1292 1281 1416 1407 1290 1326 1433 1446 1442 1403 1155 988 964 783 672 667 716 631 528 460 299 151 44 6 0 0 0 0 0 0 0 0 0 0 0 0 0 0 0 0 0 0 0 0 0 0 0 0 0 31 76 137 99 91 36 125 129 190 215 229 193 158 74
818 900 903 948 1056 1228 1431 1520 1607 1783 1840 1860 1956 1988 1990 1897 1769 1658 1506 1558 1618 1547 1313 1384 1621 1512 1490 1494 1443 1455 1404 1272 1266 1091 1041 844 746 730 699 650 519 406 277 168 73 6 8 0 3 0 0 0 0 0 0 0 0 0 0 0 0 0 0 0 0 0 0 0 0 0 0 0 18 7 2 1 1 4 5 12 14 24 27 18 11
771 838 879 901 976 1098 1361 1500 1560 1701 1768 1763 1799 1797 1826 1866 1763 1706 1642 1610 1562 1525 1496 1536 1672 1689 1647 1652 1605 1658 1444 1360 1150 1098 1028 877 807 773 696 675 513 412 293 187 112 3 0 0 0 0 0 0 0 0 0 0 0 0 0 0 0 0 0 0 0 0 0 0 0 0 0 0 1 0 0 0 0 0 0 0 2 4 4 5 2
770 816 871 882 893 1001 1216 1434 1496 1646 1708 1690 1720 1690 1663 1704 1644 1651 1580 1585 1574 1571 1636 1646 1676 1698 1696 1730 1719 1627 1438 1393 1203 1066 1082 915 860 756 798 693 587 459 300 182 92 5 0 0 0 0 0 0 0 0 0 0 0 0 0 0 0 0 0 0 0 0 0 0 0 0 0 0 0 0 0 0 0 0 0 0 0 2 2 2 3
903 911 904 929 837 920 1060 1254 1384 1560 1648 1650 1686 1648 1598 1600 1557 1530 1456 1432 1452 1553 1592 1538 1575 1565 1546 1549 1612 1552 1353 1286 1216 1137 1023 887 857 844 762 663 580 471 335 122 63 53 2 16 0 0 0 0 0 0 0 0 0 0 0 0 0 0 0 0 0 0 0 0 0 0 0 0 0 0 0 0 0 0 0 0 0 1 0 0 1
377 1010 1000 958 883 857 928 1101 1254 1390 1559 1552 1606 1620 1581 1524 1517 1482 1416 1355 1348 1376 1440 1400 1397 1422 1404 1434 1479 1496 1368 1261 1072 1066 952 836 668 593 615 506 358 227 122 57 39 16 36 2 0 0 0 0 0 0 0 0 0 0 0 0 0 0 0 0 0 0 0 0 0 0 0 0 0 0 0 0 0 0 0 0 0 0 0 0 0
0 403 886 922 891 812 839 957 1111 1216 1379 1432 1489 1556 1552 1501 1496 1468 1434 1361 1311 1295 1321 1350 1332 1366 1388 1382 1410 1403 1337 1240 1010 946 865 685 452 370 378 263 189 120 15 0 0 6 10 0 0 0 0 0 0 0 0 0 0 0 0 0 0 0 0 0 0 0 0 0 0 0 0 0 0 0 0 0 0 0 0 0 0 0 0 0 0
0 0 543 711 832 831 800 826 931 1031 1198 1304 1362 1454 1485 1504 1484 1482 1448 1400 1345 1292 1288 1327 1322 1331 1352 1360 1399 1341 1274 1221 981 896 792 637 491 329 221 200 164 124 45 0 0 6 0 0 0 0 0 0 0 0 0 0 0 0 0 0 0 0 0 0 0 0 0 0 0 0 0 0 0 0 0 0 0 0 0 0 0 0 0 0 0
0 0 478 678 735 807 843 829 782 874 1041 1174 1260 1341 1395 1445 1449 1456 1431 1410 1378 1347 1304 1306 1302 1279 1325 1340 1360 1288 1248 1230 1160 930 806 681 555 397 312 217 114 77 42 0 0 3 0 0 0 0 0 0 0 0 0 0 0 0 0 0 0 0 0 0 0 0 0 0 0 0 0 0 0 0 0 0 0 0 0 0 0 0 0 0 0
0 0 252 607 756 798 871 907 900 860 911 1065 1151 1243 1338 1385 1413 1390 1400 1373 1344 1316 1293 1268 1231 1206 1237 1311 1357 1244 1207 1121 1178 1027 806 755 642 528 401 250 177 96 33 0 0 0 1 0 0 0 0 0 0 0 0 0 0 0 0 0 0 0 0 0 0 0 0 0 0 0 0 0 0 0 0 0 0 0 0 0 0 0 0 0 0
0 0 0 234 624 784 851 922 978 982 970 960 1073 1178 1305 1366 1400 1389 1368 1369 1307 1282 1269 1250 1199 1166 1163 1194 1256 1280 1188 1105 1034 1022 883 740 684 577 465 364 251 105 4 1 1 0 2 0 0 0 0 0 0 0 0 0 0 0 0 0 0 0 0 0 0 0 0 0 0 0 0 0 0 0 0 0 0 0 0 0 0 0 0 0 0
0 0 0 0 217 596 821 914 997 1009 994 938 970 1087 1205 1336 1398 1340 1317 1380 1394 1277 1230 1217 1172 1136 1130 1105 1092 1198 1188 1100 1055 1010 956 796 690 617 514 366 195 20 3 3 2 0 0 0 0 0 0 0 0 0 0 0 0 0 0 0 0 0 0 0 0 0 0 0 0 0 0 0 0 0 0 0 0 0 0 0 0 0 0 0 0
0 0 0 0 0 0 538 773 855 948 951 883 848 956 1086 1217 1319 1380 1226 1225 1367 1402 1258 1201 1183 1165 1110 1043 1038 1052 1075 1105 1161 1078 932 901 818 666 553 416 181 5 3 4 2 1 0 0 0 0 0 0 0 0 0 0 0 0 0 0 0 0 0 0 0 0 0 0 0 0 0 0 0 0 0 1 0 0 0 0 0 0 0 0 0
0 0 0 0 0 0 0 455 654 759 857 809 730 835 960 1082 1174 1284 1318 1170 1185 1346 1379 1152 1146 1238 1185 1038 964 952 947 958 1060 1005 932 828 792 703 555 376 194 48 5 5 5 1 0 0 0 0 0 0 0 0 0 0 0 0 0 0 0 0 0 0 0 0 0 0 0 0 0 0 0 0 0 0 0 0 0 0 0 0 0 0 0
0 0 0 0 0 0 0 0 131 530 627 642 688 656 760 898 1031 1110 1208 1221 1061 1068 1323 1343 1255 1254 1263 1191 947 896 872 854 908 840 758 760 738 642 549 403 215 136 56 12 9 2 0 0 0 0 0 0 0 0 0 0 0 0 0 0 0 0 0 0 0 0 0 0 0 0 0 0 0 0 0 0 0 0 0 0 0 1 0 0 0
0 0 0 0 0 0 0 0 0 0 300 501 542 493 538 638 773 903 992 1077 1060 802 831 1150 1233 1088 1085 1288 1026 874 784 747 824 774 670 642 806 666 546 441 270 158 70 35 16 7 0 0 0 0 0 0 0 0 0 0 0 0 0 0 0 0 0 0 0 0 0 0 0 0 0 0 0 0 0 0 0 0 0 0 0 0 0 0 0
0 0 0 0 0 0 0 0 0 0 0 0 405 411 347 414 517 645 749 822 924 864 644 781 1008 1176 1039 1114 1045 783 754 707 694 710 582 532 646 784 575 394 243 161 87 47 30 9 0 0 0 0 0 0 0 0 0 0 0 0 0 0 0 0 0 0 0 0 0 0 0 0 0 0 0 0 0 0 0 0 0 0 0 0 0 0 0
0 0 0 0 0 0 0 0 0 0 0 0 0 0 105 137 294 395 536 580 631 738 710 530 676 892 1138 1105 1074 947 714 645 615 591 504 497 563 574 444 289 196 127 82 61 20 7 3 0 0 0 0 0 0 0 0 0 0 0 0 0 0 0 0 0 0 0 0 0 0 0 0 0 0 0 0 0 0 2 1 0 1 0 0 0 0
0 0 0 0 0 0 0 0 0 0 0 0 0 0 0 77 67 245 327 400 364 453 616 764 749 759 820 876 839 699 750 647 605 609 470 405 434 418 348 295 223 152 108 63 25 11 6 2 0 0 0 0 0 0 0 0 0 0 0 0 0 0 0 0 0 0 0 0 0 0 0 0 0 0 0 0 0 0 0 0 0 0 0 0 0
0 0 0 0 0 0 0 0 0 0 0 0 0 0 0 106 48 52 201 264 305 349 412 557 677 745 726 598 543 403 454 518 524 528 571 474 401 367 349 330 285 199 122 72 26 14 8 5 2 0 0 0 0 0 0 0 0 0 0 0 0 0 0 0 0 0 0 0 0 0 0 0 0 0 0 0 0 0 0 0 0 0 0 0 0
0 0 0 0 0 0 0 0 0 0 0 0 0 0 0 94 140 252 333 354 391 391 405 475 487 474 425 421 392 338 279 269 336 432 484 432 344 302 300 277 217 164 99 56 33 17 12 8 3 0 0 0 0 0 0 0 0 0 0 0 0 0 0 0 0 0 0 0 0 0 0 0 0 0 0 0 0 0 0 0 0 0 0 0 0
0 0 0 0 0 0 0 0 0 0 0 0 0 0 0 0 36 194 236 289 328 373 418 445 494 538 559 553 510 458 372 317 235 173 236 320 316 288 259 214 145 85 50 33 22 18 13 6 2 0 0 0 0 0 0 0 0 0 0 0 0 0 0 0 0 0 0 0 0 0 0 0 0 0 0 0 0 0 0 0 0 0 0 0 0
0 0 0 0 0 0 0 0 0 0 0 0 0 0 0 55 115 132 136 152 174 275 389 472 554 565 577 546 466 378 303 293 274 250 246 222 241 262 248 213 158 95 56 28 23 15 11 7 6 4 0 0 0 0 0 0 0 0 0 0 0 0 0 0 0 0 0 0 0 0 0 0 0 0 0 0 0 0 0 0 0 0 0 0 0
0 0 0 0 0 0 0 0 0 0 0 0 0 0 3 44 63 65 56 52 58 67 99 190 269 304 368 418 346 296 264 270 336 194 296 323 281 241 243 230 179 122 80 47 30 26 18 15 14 11 4 1 0 0 0 0 0 0 0 0 0 0 0 0 0 0 0 0 0 0 0 0 0 0 0 0 0 0 0 0 0 0 0 0 0
0 0 0 0 0 0 0 0 0 0 0 0 0 0 0 1 8 10 17 26 34 36 38 41 54 35 38 40 54 81 95 128 148 183 199 159 164 161 57 78 78 83 92 56 40 32 29 26 20 10 9 11 8 2 0 0 0 0 0 0 0 0 0 0 0 0 0 0 0 0 0 0 0 0 0 0 0 0 0 0 0 0 0 0 0
0 0 0 0 0 0 0 0 0 0 0 0 0 0 0 3 4 7 11 15 20 20 24 32 31 30 39 39 33 30 38 43 61 79 102 142 104 56 49 55 43 50 39 37 36 35 29 23 10 4 11 12 10 6 1 0 0 0 0 0 0 0 0 0 0 0 0 0 0 0 0 0 0 0 0 0 0 0 0 0 0 0 0 0 0
0 0 0 0 0 0 0 0 0 0 0 0 0 0 4 3 7 6 11 11 13 20 13 17 20 24 26 32 33 37 36 32 29 36 38 43 42 28 41 44 34 40 46 32 27 26 21 18 17 21 16 10 8 5 5 7 4 0 0 0 0 0 0 0 0 0 0 0 0 0 0 0 0 0 0 0 0 0 0 0 0 0 0 0 0
0 0 0 0 0 0 0 0 0 0 0 0 0 0 0 0 0 1 2 3 8 7 8 7 8 8 4 4 10 13 19 27 32 30 34 30 26 27 22 12 12 17 19 23 27 21 9 6 9 21 20 18 20 14 11 11 7 2 0 0 0 0 0 0 0 0 0 0 0 0 0 0 0 0 0 0 0 0 0 0 0 0 0 0 0
0 0 0 0 0 0 0 0 0 0 0 0 0 0 0 0 0 0 0 0 1 1 2 0 0 0 0 0 0 0 0 7 23 25 22 20 12 5 3 5 6 9 8 10 9 4 2 2 2 4 5 11 15 14 17 11 11 3 1 1 0 0 0 0 0 0 0 0 0 0 0 0 0 0 0 0 0 0 0 0 0 0 0 0 0
0 0 0 0 0 0 0 0 0 0 0 0 0 0 0 0 0 0 0 0 0 0 0 0 0 0 0 0 0 0 0 1 0 1 4 7 7 6 5 5 7 6 3 5 10 11 6 2 0 4 8 9 13 18 12 6 3 6 7 1 0 0 0 0 0 0 0 0 0 0 0 0 0 0 0 0 0 0 0 0 0 0 0 0 0
0 0 0 0 0 0 0 0 0 0 0 0 0 0 0 0 0 0 0 0 0 0 0 0 0 0 0 0 0 0 0 0 0 0 0 0 0 2 2 2 2 1 0 0 0 0 0 0 2 11 12 9 9 9 12 13 10 10 5 1 0 0 0 0 0 0 0 0 0 0 0 0 0 0 0 0 0 0 0 0 0 0 0 0 0
0 0 0 0 0 0 0 0 0 0 0 0 0 0 0 0 0 0 0 0 0 0 0 0 0 0 0 0 0 0 0 0 0 0 0 0 0 0 0 0 0 0 0 0 0 0 0 0 6 10 12 8 6 5 3 3 3 4 1 1 0 0 0 0 0 0 0 0 0 0 0 0 0 0 0 0 0 0 0 0 0 0 0 0 0
0 0 0 0 0 0 0 0 0 0 0 0 0 0 0 0 0 0 0 0 0 0 0 0 0 0 0 0 0 0 0 0 0 0 0 0 0 0 0 0 0 0 0 0 0 0 0 4 7 8 8 7 7 6 7 4 2 3 5 1 0 0 0 0 0 0 0 0 0 0 0 0 0 0 0 0 0 0 0 0 0 0 0 0 0
0 0 0 0 0 0 0 0 0 0 0 0 0 0 0 0 0 0 0 0 0 0 0 0 0 0 0 0 0 0 0 0 0 0 0 0 0 0 0 0 0 0 0 0 0 0 0 1 4 5 7 9 6 4 3 6 6 6 6 6 2 0 2 0 0 0 0 0 0 0 0 0 0 0 0 0 0 0 0 0 0 0 0 0 0
0 0 0 0 0 0 0 0 0 0 0 0 0 0 0 0 0 0 0 0 0 0 0 0 0 0 0 0 0 0 0 0 0 0 0 0 0 0 0 0 0 0 0 0 0 0 0 0 0 0 2 4 8 6 6 6 4 2 4 4 3 6 1 3 0 0 0 0 0 0 0 0 0 0 0 0 0 0 0 0 0 0 0 0 0
0 0 0 0 0 0 0 0 0 0 0 0 0 0 0 0 0 0 0 0 0 0 0 0 0 0 0 0 0 0 0 0 0 0 0 0 0 0 0 0 0 0 0 0 0 0 0 0 0 0 0 1 0 1 1 2 2 3 3 2 3 2 3 0 0 0 0 1 0 0 0 0 0 0 0 0 0 0 0 0 0 0 0 0 0
0 0 0 0 0 0 0 0 0 0 0 0 0 0 0 0 0 0 0 0 0 0 0 0 0 0 0 0 0 0 0 0 0 0 0 0 0 0 0 0 0 0 0 0 0 0 0 0 0 0 0 0 0 0 2 2 2 2 2 2 1 2 0 2 2 2 1 1 0 0 0 0 0 0 0 0 0 0 0 0 0 0 0 0 0
0 0 0 0 0 0 0 0 0 0 0 0 0 0 0 0 0 0 0 0 0 0 0 0 0 0 0 0 0 0 0 0 0 0 0 0 0 0 0 0 0 0 0 0 0 0 0 0 0 0 0 0 0 0 0 0 0 0 1 2 1 1 0 0 1 2 2 1 0 0 1 0 0 0 0 0 0 0 0 0 0 0 0 0 0
Wind_Speed
11 14 13 16 17 18 20 20 18 16 15 14 14 14 13 12 13 14 15 16 16 16 15 15 15 14 14 15 15 16 17 19 19 19 19 18 17 16 15 16 16 17 18 19 21 20 22 22 21 21 23 25 nan nan nan nan nan nan nan nan 24 24 24 24 23 23 23 22 22 22 20 20 20 20 19 20 20 19 18 16 15 12 13 14 18
14 13 12 12 17 17 19 20 19 18 16 15 15 14 14 14 14 14 14 14 15 16 17 17 16 15 16 16 16 16 17 17 17 17 17 16 15 14 14 14 15 15 16 18 20 21 21 22 20 19 20 22 nan nan nan nan nan nan nan nan 23 23 23 22 22 21 19 19 18 18 18 19 18 19 18 18 17 16 15 14 14 11 10 17 18
12 12 11 12 15 16 16 18 19 19 18 16 15 14 14 13 14 15 14 14 14 15 16 18 18 17 17 17 17 17 16 17 16 16 15 14 13 12 12 12 13 14 15 17 19 20 20 20 20 19 19 19 nan nan nan nan nan nan nan nan nan 21 21 20 19 18 16 16 15 16 17 16 17 17 18 17 17 16 14 14 13 12 12 18 16
16 13 12 12 14 14 14 16 17 17 16 15 14 12 12 13 14 15 14 14 15 15 15 17 18 18 17 18 18 18 17 17 16 15 14 14 14 12 11 12 12 13 15 16 18 20 21 21 20 19 18 nan nan nan nan nan nan nan nan nan nan nan 19 18 17 nan nan nan 14 15 12 11 11 17 18 18 17 17 13 13 14 15 17 16 17
16 14 14 12 11 13 13 14 14 15 16 15 14 14 14 15 14 14 14 14 15 14 15 15 17 18 18 18 18 19 18 17 16 15 15 14 14 14 13 13 13 13 14 15 18 19 22 21 20 20 nan nan nan nan nan nan nan nan nan nan nan nan nan 18 17 15 nan nan 13 13 11 10 11 16 18 19 19 18 15 15 16 17 16 17 18
14 14 14 14 12 12 14 13 13 14 14 14 14 14 15 15 15 14 13 12 13 13 13 14 15 17 19 19 20 19 19 19 17 16 15 15 15 15 15 14 13 14 15 16 18 21 22 21 21 19 nan nan nan nan nan nan nan nan nan nan nan nan nan nan nan nan nan nan 15 12 12 12 13 12 18 18 19 17 18 18 18 18 18 19 20
16 14 14 15 13 14 16 14 15 14 14 14 13 14 15 15 14 14 14 13 12 12 12 12 13 14 17 18 20 20 20 20 19 18 16 15 15 15 15 15 14 14 16 17 17 18 20 20 20 19 nan nan nan nan nan nan nan nan nan nan nan nan nan nan nan nan nan nan 15 14 14 14 14 13 16 18 19 19 19 20 20 20 21 21 21
12 14 15 15 14 16 18 16 16 15 14 14 13 13 14 14 13 13 13 13 12 12 12 12 11 12 14 16 18 20 20 20 19 18 17 16 16 16 16 16 16 15 16 17 18 19 19 19 17 nan nan nan nan nan nan nan nan nan nan nan nan nan nan nan nan nan nan nan 17 18 17 15 15 15 17 19 19 19 20 22 21 22 22 23 21
13 13 14 15 15 19 19 17 18 17 15 14 14 13 13 15 12 12 12 12 11 11 11 12 11 11 12 14 15 17 19 20 20 19 17 16 16 16 17 16 16 17 17 17 17 18 19 19 nan nan nan nan nan nan nan nan nan nan nan nan nan nan nan nan nan nan nan nan 17 18 17 16 16 16 17 20 21 21 22 22 22 23 24 23 22
12 13 13 14 14 20 20 19 20 19 20 16 15 14 14 14 14 14 13 12 12 11 11 11 12 11 13 13 14 15 16 16 18 18 17 16 16 17 17 17 17 19 18 17 17 17 17 nan nan nan nan nan nan nan nan nan nan nan nan nan nan nan nan nan nan nan nan 18 18 18 17 18 16 16 18 22 22 24 23 22 21 21 21 22 24
13 14 14 14 14 19 21 21 20 19 20 18 17 17 17 16 15 14 14 14 13 13 12 11 12 12 12 13 13 14 13 13 14 15 16 16 16 16 17 17 18 17 17 17 17 16 18 nan nan nan nan nan nan nan nan nan nan nan nan nan nan nan nan nan nan nan nan nan 19 19 18 19 17 17 21 23 23 24 22 21 19 22 24 24 26
14 13 13 13 15 20 20 21 20 20 20 19 19 18 20 19 16 16 14 14 14 14 14 13 13 13 13 12 13 13 13 13 13 14 14 15 14 15 16 17 17 16 15 15 16 18 nan nan nan nan nan nan nan nan nan nan nan nan nan nan nan nan nan nan nan nan nan nan nan 19 18 18 17 17 21 23 24 24 23 22 21 22 24 25 25
14 13 13 13 13 17 20 21 20 20 20 20 20 20 20 20 19 17 16 15 15 14 14 13 13 13 13 13 12 12 12 13 14 15 15 15 14 14 15 16 16 15 18 17 14 nan nan nan nan nan nan nan nan nan nan nan nan nan nan nan nan nan nan nan nan nan nan nan nan nan 19 18 17 18 26 26 27 27 25 24 23 25 25 25 25
16 15 14 14 14 16 19 20 20 20 20 20 20 19 20 18 19 18 18 15 15 14 14 14 12 12 14 13 13 12 12 14 15 16 16 16 17 13 14 15 16 15 17 17 nan nan nan nan nan nan nan nan nan nan nan nan nan nan nan nan nan nan nan nan nan nan nan nan nan nan nan nan nan 16 nan nan nan 25 26 26 26 26 26 26 nan
20 17 16 16 15 15 17 18 19 19 20 19 19 19 19 18 18 18 18 16 14 14 15 14 12 13 13 13 12 13 13 14 15 16 17 17 18 16 14 15 15 16 18 17 nan nan nan nan nan nan nan nan nan nan nan nan nan nan nan nan nan nan nan nan nan nan nan nan nan nan nan nan nan nan nan nan nan nan nan nan nan nan nan nan nan
17 19 18 17 16 16 16 16 18 18 18 19 19 18 18 18 17 17 16 16 15 14 14 13 12 12 12 13 12 12 14 15 15 16 17 18 17 18 18 17 17 18 17 16 14 nan nan nan nan nan nan nan nan nan nan nan nan nan nan nan nan nan nan nan nan nan nan nan nan nan nan nan nan nan nan nan nan nan nan nan nan nan nan nan nan
18 18 19 18 18 17 17 16 16 17 16 17 18 18 17 17 17 16 15 15 14 14 13 12 11 11 11 11 11 13 14 15 16 16 17 19 18 18 18 18 18 18 17 14 nan nan nan nan nan nan nan nan nan nan nan nan nan nan nan nan nan nan nan nan nan nan nan nan nan nan nan nan nan nan nan nan nan nan nan nan nan nan nan nan nan
17 18 18 18 18 17 18 17 16 16 15 15 16 18 17 17 17 16 15 15 14 13 13 12 11 11 10 10 11 16 15 16 17 17 18 20 20 20 19 19 18 17 15 14 nan nan nan nan nan nan nan nan nan nan nan nan nan nan nan nan nan nan nan nan nan nan nan nan nan nan nan nan nan nan nan nan nan nan nan nan nan nan nan nan nan
16 16 16 17 18 17 17 17 17 16 16 16 15 16 17 17 17 17 16 15 15 14 13 13 12 12 11 10 12 16 16 17 17 18 20 20 22 23 22 21 20 20 18 nan nan nan nan nan nan nan nan nan nan nan nan nan nan nan nan nan nan nan nan nan nan nan nan nan nan nan nan nan nan nan nan nan nan nan nan nan nan nan nan nan nan
nan 15 16 16 17 18 17 17 16 16 16 16 16 16 16 17 16 17 16 16 16 16 15 15 14 14 14 14 16 16 16 16 16 16 18 20 20 23 24 24 23 22 nan nan nan nan nan nan nan nan nan nan nan nan nan nan nan nan nan nan nan nan nan nan nan nan nan nan nan nan nan nan nan nan nan nan nan nan nan nan nan nan nan nan nan
nan nan 14 15 17 18 18 18 17 16 16 16 16 16 16 17 16 16 17 16 16 17 17 17 17 17 17 17 19 17 17 16 16 16 17 18 19 21 24 23 23 24 nan nan nan nan nan nan nan nan nan nan nan nan nan nan nan nan nan nan nan nan nan nan nan nan nan nan nan nan nan nan nan nan nan nan nan nan nan nan nan nan nan nan nan
nan nan 12 15 17 18 19 20 19 18 17 17 17 17 17 18 17 18 18 18 18 18 18 19 20 20 21 21 20 20 19 18 17 17 19 18 19 19 22 21 23 nan nan nan nan nan nan nan nan nan nan nan nan nan nan nan nan nan nan nan nan nan nan nan nan nan nan nan nan nan nan nan nan nan nan nan nan nan nan nan nan nan nan nan nan
nan nan 12 16 17 18 19 20 20 20 19 18 18 17 18 19 18 19 19 20 20 20 20 21 22 22 23 23 23 22 22 21 21 20 19 21 20 20 21 22 22 nan nan nan nan nan nan nan nan nan nan nan nan nan nan nan nan nan nan nan nan nan nan nan nan nan nan nan nan nan nan nan nan nan nan nan nan nan nan nan nan nan nan nan nan
nan nan nan 13 14 17 19 20 20 20 19 18 18 18 18 19 19 19 20 21 21 21 21 22 23 24 24 25 25 25 25 24 24 23 23 22 22 21 21 23 25 25 nan nan nan nan nan nan nan nan nan nan nan nan nan nan nan nan nan nan nan nan nan nan nan nan nan nan nan nan nan nan nan nan nan nan nan nan nan nan nan nan nan nan nan
nan nan nan nan 15 13 15 17 19 19 20 19 19 18 18 18 19 20 20 21 21 22 22 22 23 24 25 26 26 27 27 27 27 27 26 26 25 24 24 25 27 nan nan nan nan nan nan nan nan nan nan nan nan nan nan nan nan nan nan nan nan nan nan nan nan nan nan nan nan nan nan nan nan nan nan nan nan nan nan nan nan nan nan nan nan
nan nan nan nan nan nan 16 17 18 18 19 19 19 20 20 19 19 19 21 21 21 22 23 23 23 24 25 26 27 28 28 28 29 29 29 29 28 28 27 28 29 nan nan nan nan nan nan nan nan nan nan nan nan nan nan nan nan nan nan nan nan nan nan nan nan nan nan nan nan nan nan nan nan nan nan nan nan nan nan nan nan nan nan nan nan
nan nan nan nan nan nan nan 20 19 19 19 20 20 21 20 20 21 21 21 23 22 21 22 24 24 24 26 27 27 27 28 28 29 31 30 31 31 31 31 31 30 nan nan nan nan nan nan nan nan nan nan nan nan nan nan nan nan nan nan nan nan nan nan nan nan nan nan nan nan nan nan nan nan nan nan nan nan nan nan nan nan nan nan nan nan
nan nan nan nan nan nan nan nan 21 22 22 23 23 22 22 22 22 24 22 23 25 22 22 24 26 26 26 28 27 27 28 27 28 30 31 31 32 34 34 34 33 34 nan nan nan nan nan nan nan nan nan nan nan nan nan nan nan nan nan nan nan nan nan nan nan nan nan nan nan nan nan nan nan nan nan nan nan nan nan nan nan nan nan nan nan
nan nan nan nan nan nan nan nan nan nan 25 26 25 26 26 25 25 26 25 26 25 25 24 24 27 29 26 28 30 28 28 28 28 30 33 31 32 35 36 36 36 37 nan nan nan nan nan nan nan nan nan nan nan nan nan nan nan nan nan nan nan nan nan nan nan nan nan nan nan nan nan nan nan nan nan nan nan nan nan nan nan nan nan nan nan
nan nan nan nan nan nan nan nan nan nan nan nan 26 28 29 29 28 28 29 30 28 28 29 27 28 30 32 30 30 30 29 29 29 31 33 32 34 36 36 36 36 37 nan nan nan nan nan nan nan nan nan nan nan nan nan nan nan nan nan nan nan nan nan nan nan nan nan nan nan nan nan nan nan nan nan nan nan nan nan nan nan nan nan nan nan
nan nan nan nan nan nan nan nan nan nan nan nan nan nan 31 30 30 31 32 32 32 32 32 31 31 32 33 34 32 31 32 31 32 33 33 34 35 36 35 37 37 36 nan nan nan nan nan nan nan nan nan nan nan nan nan nan nan nan nan nan nan nan nan nan nan nan nan nan nan nan nan nan nan nan nan nan nan nan nan nan nan nan nan nan nan
nan nan nan nan nan nan nan nan nan nan nan nan nan nan nan nan nan 34 33 33 35 34 34 34 35 35 35 35 35 34 34 34 34 35 35 36 36 36 37 37 36 37 37 nan nan nan nan nan nan nan nan nan nan nan nan nan nan nan nan nan nan nan nan nan nan nan nan nan nan nan nan nan nan nan nan nan nan nan nan nan nan nan nan nan nan
nan nan nan nan nan nan nan nan nan nan nan nan nan nan nan 34 nan nan 35 37 36 36 35 35 36 36 37 37 36 36 35 36 35 36 37 38 38 38 38 37 37 39 39 nan nan nan nan nan nan nan nan nan nan nan nan nan nan nan nan nan nan nan nan nan nan nan nan nan nan nan nan nan nan nan nan nan nan nan nan nan nan nan nan nan nan
nan nan nan nan nan nan nan nan nan nan nan nan nan nan nan nan 36 37 38 38 38 37 36 36 36 37 38 38 38 38 38 36 37 37 38 38 39 39 39 39 39 41 nan nan nan nan nan nan nan nan nan nan nan nan nan nan nan nan nan nan nan nan nan nan nan nan nan nan nan nan nan nan nan nan nan nan nan nan nan nan nan nan nan nan nan
nan nan nan nan nan nan nan nan nan nan nan nan nan nan nan nan nan 37 38 38 39 38 38 38 39 38 39 39 39 39 39 39 38 39 39 39 40 39 40 39 43 nan nan nan nan nan nan nan nan nan nan nan nan nan nan nan nan nan nan nan nan nan nan nan nan nan nan nan nan nan nan nan nan nan nan nan nan nan nan nan nan nan nan nan nan
nan nan nan nan nan nan nan nan nan nan nan nan nan nan nan nan 39 40 41 40 41 41 41 41 40 40 39 39 39 39 40 40 41 42 42 41 41 40 39 42 44 nan nan nan nan nan nan nan nan nan nan nan nan nan nan nan nan nan nan nan nan nan nan nan nan nan nan nan nan nan nan nan nan nan nan nan nan nan nan nan nan nan nan nan nan
nan nan nan nan nan nan nan nan nan nan nan nan nan nan nan nan nan nan nan nan nan nan nan 42 44 43 43 44 44 43 43 43 42 42 42 43 42 41 42 45 46 45 nan nan nan nan nan nan nan nan nan nan nan nan nan nan nan nan nan nan nan nan nan nan nan nan nan nan nan nan nan nan nan nan nan nan nan nan nan nan nan nan nan nan nan
nan nan nan nan nan nan nan nan nan nan nan nan nan nan nan nan nan nan nan nan nan nan nan nan nan nan nan nan nan nan nan 46 45 44 43 44 44 44 nan nan nan nan nan nan nan nan nan nan nan nan nan nan nan nan nan nan nan nan nan nan nan nan nan nan nan nan nan nan nan nan nan nan nan nan nan nan nan nan nan nan nan nan nan nan nan
nan nan nan nan nan nan nan nan nan nan nan nan nan nan nan nan nan nan nan nan nan nan nan nan nan nan nan nan nan nan nan nan nan nan 47 46 47 nan nan nan nan nan nan nan nan nan nan nan nan nan nan nan nan nan nan nan nan nan nan nan nan nan nan nan nan nan nan nan nan nan nan nan nan nan nan nan nan nan nan nan nan nan nan nan nan
nan nan nan nan nan nan nan nan nan nan nan nan nan nan nan nan nan nan nan nan nan nan nan nan nan nan nan nan nan nan nan nan nan nan nan nan nan nan nan nan nan nan nan nan nan nan nan nan nan nan nan nan nan nan nan nan nan nan nan nan nan nan nan nan nan nan nan nan nan nan nan nan nan nan nan nan nan nan nan nan nan nan nan nan nan
nan nan nan nan nan nan nan nan nan nan nan nan nan nan nan nan nan nan nan nan nan nan nan nan nan nan nan nan nan nan nan nan nan nan nan nan nan nan nan nan nan nan nan nan nan nan nan nan nan nan nan nan nan nan nan nan nan nan nan nan nan nan nan nan nan nan nan nan nan nan nan nan nan nan nan nan nan nan nan nan nan nan nan nan nan
nan nan nan nan nan nan nan nan nan nan nan nan nan nan nan nan nan nan nan nan nan nan nan nan nan nan nan nan nan nan nan nan nan nan nan nan nan nan nan nan nan nan nan nan nan nan nan nan nan nan nan nan nan nan nan nan nan nan nan nan nan nan nan nan nan nan nan nan nan nan nan nan nan nan nan nan nan nan nan nan nan nan nan nan nan
nan nan nan nan nan nan nan nan nan nan nan nan nan nan nan nan nan nan nan nan nan nan nan nan nan nan nan nan nan nan nan nan nan nan nan nan nan nan nan nan nan nan nan nan nan nan nan nan nan nan nan nan nan nan nan nan nan nan nan nan nan nan nan nan nan nan nan nan nan nan nan nan nan nan nan nan nan nan nan nan nan nan nan nan nan
nan nan nan nan nan nan nan nan nan nan nan nan nan nan nan nan nan nan nan nan nan nan nan nan nan nan nan nan nan nan nan nan nan nan nan nan nan nan nan nan nan nan nan nan nan nan nan nan nan nan nan nan nan nan nan nan nan nan nan nan nan nan nan nan nan nan nan nan nan nan nan nan nan nan nan nan nan nan nan nan nan nan nan nan nan
nan nan nan nan nan nan nan nan nan nan nan nan nan nan nan nan nan nan nan nan nan nan nan nan nan nan nan nan nan nan nan nan nan nan nan nan nan nan nan nan nan nan nan nan nan nan nan nan nan nan nan nan nan nan nan nan nan nan nan nan nan nan nan nan nan nan nan nan nan nan nan nan nan nan nan nan nan nan nan nan nan nan nan nan nan
nan nan nan nan nan nan nan nan nan nan nan nan nan nan nan nan nan nan nan nan nan nan nan nan nan nan nan nan nan nan nan nan nan nan nan nan nan nan nan nan nan nan nan nan nan nan nan nan nan nan nan nan nan nan nan nan nan nan nan nan nan nan nan nan nan nan nan nan nan nan nan nan nan nan nan nan nan nan nan nan nan nan nan nan nan
nan nan nan nan nan nan nan nan nan nan nan nan nan nan nan nan nan nan nan nan nan nan nan nan nan nan nan nan nan nan nan nan nan nan nan nan nan nan nan nan nan nan nan nan nan nan nan nan nan nan nan nan nan nan nan nan nan nan nan nan nan nan nan nan nan nan nan nan nan nan nan nan nan nan nan nan nan nan nan nan nan nan nan nan nan
nan nan nan nan nan nan nan nan nan nan nan nan nan nan nan nan nan nan nan nan nan nan nan nan nan nan nan nan nan nan nan nan nan nan nan nan nan nan nan nan nan nan nan nan nan nan nan nan nan nan nan nan nan nan nan nan nan nan nan nan nan nan nan nan nan nan nan nan nan nan nan nan nan nan nan nan nan nan nan nan nan nan nan nan nan
nan nan nan nan nan nan nan nan nan nan nan nan nan nan nan nan nan nan nan nan nan nan nan nan nan nan nan nan nan nan nan nan nan nan nan nan nan nan nan nan nan nan nan nan nan nan nan nan nan nan nan nan nan nan nan nan nan nan nan nan nan nan nan nan nan nan nan nan nan nan nan nan nan nan nan nan nan nan nan nan nan nan nan nan nan
nan nan nan nan nan nan nan nan nan nan nan nan nan nan nan nan nan nan nan nan nan nan nan nan nan nan nan nan nan nan nan nan nan nan nan nan nan nan nan nan nan nan nan nan nan nan nan nan nan nan nan nan nan nan nan nan nan nan nan nan nan nan nan nan nan nan nan nan nan nan nan nan nan nan nan nan nan nan nan nan nan nan nan nan nan
nan nan nan nan nan nan nan nan nan nan nan nan nan nan nan nan nan nan nan nan nan nan nan nan nan nan nan nan nan nan nan nan nan nan nan nan nan nan nan nan nan nan nan nan nan nan nan nan nan nan nan nan nan nan nan nan nan nan nan nan nan nan nan nan nan nan nan nan nan nan nan nan nan nan nan nan nan nan nan nan nan nan nan nan nan
Wind_Direction
34 11 17 22 21 18 15 14 13 12 6 3 353 343 333 324 314 304 297 291 279 272 272 276 281 289 293 298 298 295 292 287 284 282 279 278 276 271 268 265 263 264 266 269 270 271 269 267 266 264 261 259 nan nan nan nan nan nan nan nan 248 248 248 248 246 246 249 251 257 261 265 267 267 267 266 265 263 259 253 250 249 249 251 248 248
1 11 8 16 20 16 14 9 8 10 7 5 357 349 342 330 322 312 308 300 287 276 272 274 279 284 290 295 298 300 298 295 290 287 284 283 277 272 263 260 266 268 270 272 274 271 270 267 265 262 259 258 nan nan nan nan nan nan nan nan 246 244 245 246 246 246 246 246 245 243 246 261 264 266 267 266 263 259 252 247 243 249 253 249 247
341 357 1 7 15 15 13 9 3 6 5 4 1 355 348 335 326 319 315 310 302 288 276 273 276 283 288 293 297 300 300 298 295 291 286 280 272 261 257 255 256 266 268 272 274 274 269 266 261 258 256 256 nan nan nan nan nan nan nan nan nan 244 244 244 244 242 241 242 244 245 241 248 266 268 267 266 265 261 256 249 243 244 254 250 250
349 360 355 1 10 12 12 12 3 2 3 1 360 357 350 341 335 328 322 318 311 305 290 275 275 282 288 292 295 298 300 301 298 296 292 278 258 252 251 250 254 258 265 268 271 273 268 263 260 258 255 nan nan nan nan nan nan nan nan nan nan nan 242 243 241 nan nan nan 243 249 252 249 255 269 270 268 267 263 256 253 252 253 252 250 248
360 1 0 356 1 9 10 6 2 360 360 358 357 353 350 348 343 339 335 325 321 317 306 291 280 280 285 291 293 295 298 300 302 299 294 284 272 261 258 255 253 260 270 272 270 267 265 259 257 255 nan nan nan nan nan nan nan nan nan nan nan nan nan 239 238 240 nan nan 249 251 253 250 250 265 269 271 269 267 261 260 259 255 252 252 249
8 5 5 5 2 6 9 358 356 355 356 356 352 349 350 348 345 343 341 334 330 324 318 310 297 287 287 291 295 297 299 302 303 299 294 290 284 276 270 266 266 269 273 271 271 269 264 261 256 254 nan nan nan nan nan nan nan nan nan nan nan nan nan nan nan nan nan nan 259 258 251 248 249 252 270 271 271 271 267 263 261 259 256 252 249
3 7 6 7 9 10 10 2 356 350 351 349 346 350 349 345 345 344 343 341 340 336 330 322 312 300 295 295 296 299 301 302 302 299 298 294 290 285 281 276 276 280 283 282 277 269 267 262 256 251 nan nan nan nan nan nan nan nan nan nan nan nan nan nan nan nan nan nan 261 258 253 251 251 250 258 264 267 267 264 262 261 259 257 254 248
4 7 9 8 10 13 12 9 2 358 349 339 341 347 346 344 342 344 344 344 343 342 339 330 321 314 304 300 298 300 301 302 302 299 296 295 292 288 284 285 284 284 280 279 274 265 262 260 257 nan nan nan nan nan nan nan nan nan nan nan nan nan nan nan nan nan nan nan 255 258 255 251 251 252 258 258 258 259 263 264 262 261 260 257 251
358 5 5 8 10 9 13 11 7 6 0 344 341 340 342 341 339 342 344 344 345 340 340 333 326 324 316 307 302 299 299 302 301 299 297 296 293 292 290 288 288 283 283 282 276 271 266 263 nan nan nan nan nan nan nan nan nan nan nan nan nan nan nan nan nan nan nan nan 252 254 253 252 252 252 261 265 261 258 254 257 259 262 262 259 259
349 353 358 1 6 8 11 11 10 8 6 356 350 347 344 339 334 341 342 345 342 335 339 335 334 330 324 317 311 307 304 303 303 301 298 296 295 294 291 289 289 287 285 281 277 269 264 nan nan nan nan nan nan nan nan nan nan nan nan nan nan nan nan nan nan nan nan 250 251 252 253 251 253 255 261 262 263 260 254 255 260 263 264 264 264
339 343 345 351 355 1 6 9 10 8 8 2 357 356 354 349 336 337 340 343 337 337 339 339 335 333 330 324 318 315 312 312 308 302 300 297 297 297 294 291 289 287 285 280 274 269 267 nan nan nan nan nan nan nan nan nan nan nan nan nan nan nan nan nan nan nan nan nan 251 249 248 247 254 257 261 264 264 262 257 257 262 269 269 268 264
330 331 334 337 344 352 358 2 5 5 8 4 1 0 2 358 347 345 344 340 338 339 337 341 337 331 326 328 322 323 319 319 313 304 301 300 301 302 300 297 294 290 285 281 277 279 nan nan nan nan nan nan nan nan nan nan nan nan nan nan nan nan nan nan nan nan nan nan nan 252 251 252 253 259 261 262 261 260 258 257 262 265 266 262 261
318 319 321 321 328 344 350 354 356 358 3 2 2 2 4 2 357 354 354 349 342 336 333 338 333 327 327 323 322 318 320 316 313 306 304 300 300 303 302 302 299 294 269 262 268 nan nan nan nan nan nan nan nan nan nan nan nan nan nan nan nan nan nan nan nan nan nan nan nan nan 255 254 256 263 272 268 263 259 258 257 257 259 259 261 263
309 311 309 312 317 333 343 346 348 350 354 355 356 358 2 2 359 359 2 356 352 339 337 336 325 319 322 322 318 313 316 314 312 307 304 300 296 297 301 300 296 295 277 269 nan nan nan nan nan nan nan nan nan nan nan nan nan nan nan nan nan nan nan nan nan nan nan nan nan nan nan nan nan 267 nan nan nan 261 260 260 259 257 258 258 nan
311 309 307 305 307 315 336 339 340 343 346 345 347 350 355 356 357 359 1 357 356 348 346 342 322 315 310 307 314 316 316 311 309 306 302 298 296 295 294 294 289 284 278 274 nan nan nan nan nan nan nan nan nan nan nan nan nan nan nan nan nan nan nan nan nan nan nan nan nan nan nan nan nan nan nan nan nan nan nan nan nan nan nan nan nan
306 310 306 306 305 306 316 328 335 336 338 338 337 340 344 346 347 351 355 353 353 349 346 347 334 319 308 301 303 303 308 309 307 305 301 296 292 292 289 286 283 280 279 278 277 nan nan nan nan nan nan nan nan nan nan nan nan nan nan nan nan nan nan nan nan nan nan nan nan nan nan nan nan nan nan nan nan nan nan nan nan nan nan nan nan
300 303 306 310 307 307 312 314 318 327 328 328 329 331 333 334 334 339 343 343 345 345 342 341 332 325 318 310 300 289 289 291 296 302 302 296 293 291 289 287 284 283 281 274 nan nan nan nan nan nan nan nan nan nan nan nan nan nan nan nan nan nan nan nan nan nan nan nan nan nan nan nan nan nan nan nan nan nan nan nan nan nan nan nan nan
298 300 308 308 308 307 310 312 312 310 307 311 319 323 325 326 325 326 328 330 332 333 332 329 323 320 314 307 299 293 292 287 288 293 291 293 289 285 285 284 281 276 269 263 nan nan nan nan nan nan nan nan nan nan nan nan nan nan nan nan nan nan nan nan nan nan nan nan nan nan nan nan nan nan nan nan nan nan nan nan nan nan nan nan nan
295 300 302 304 308 305 309 310 311 308 307 301 297 308 320 321 319 318 317 318 319 319 316 313 310 306 304 294 290 299 295 296 293 290 286 283 280 281 279 275 276 273 265 nan nan nan nan nan nan nan nan nan nan nan nan nan nan nan nan nan nan nan nan nan nan nan nan nan nan nan nan nan nan nan nan nan nan nan nan nan nan nan nan nan nan
nan 301 306 307 304 308 308 311 313 315 310 303 298 294 305 313 310 311 310 308 309 308 305 300 298 296 293 289 289 291 292 295 298 290 292 286 281 275 274 270 273 272 nan nan nan nan nan nan nan nan nan nan nan nan nan nan nan nan nan nan nan nan nan nan nan nan nan nan nan nan nan nan nan nan nan nan nan nan nan nan nan nan nan nan nan
nan nan 310 311 308 312 316 315 318 319 317 311 301 297 296 303 297 301 305 302 299 300 297 294 290 285 282 283 285 281 275 276 288 280 286 284 286 284 281 275 273 269 nan nan nan nan nan nan nan nan nan nan nan nan nan nan nan nan nan nan nan nan nan nan nan nan nan nan nan nan nan nan nan nan nan nan nan nan nan nan nan nan nan nan nan
nan nan 313 309 313 318 322 322 318 324 320 313 306 301 296 299 292 287 287 289 288 288 285 278 279 273 275 274 273 275 273 272 273 276 279 278 283 287 284 283 280 nan nan nan nan nan nan nan nan nan nan nan nan nan nan nan nan nan nan nan nan nan nan nan nan nan nan nan nan nan nan nan nan nan nan nan nan nan nan nan nan nan nan nan nan
nan nan 314 314 316 316 318 323 323 323 323 319 312 308 306 301 302 295 289 289 285 283 279 278 274 273 271 270 269 269 271 271 272 269 269 280 278 286 287 286 282 nan nan nan nan nan nan nan nan nan nan nan nan nan nan nan nan nan nan nan nan nan nan nan nan nan nan nan nan nan nan nan nan nan nan nan nan nan nan nan nan nan nan nan nan
nan nan nan 282 299 312 319 320 321 319 319 315 312 309 306 303 303 298 292 290 288 284 280 278 275 274 273 269 268 268 268 268 269 276 270 268 271 278 282 281 279 279 nan nan nan nan nan nan nan nan nan nan nan nan nan nan nan nan nan nan nan nan nan nan nan nan nan nan nan nan nan nan nan nan nan nan nan nan nan nan nan nan nan nan nan
nan nan nan nan 277 283 292 306 308 310 312 310 310 308 305 300 301 302 296 291 289 288 285 280 277 276 275 272 270 267 266 267 267 267 267 267 266 267 267 267 265 nan nan nan nan nan nan nan nan nan nan nan nan nan nan nan nan nan nan nan nan nan nan nan nan nan nan nan nan nan nan nan nan nan nan nan nan nan nan nan nan nan nan nan nan
nan nan nan nan nan nan 280 279 289 297 302 302 303 300 298 300 297 301 301 293 290 289 288 283 281 280 276 275 272 272 270 268 267 268 268 268 268 267 267 266 268 nan nan nan nan nan nan nan nan nan nan nan nan nan nan nan nan nan nan nan nan nan nan nan nan nan nan nan nan nan nan nan nan nan nan nan nan nan nan nan nan nan nan nan nan
nan nan nan nan nan nan nan 275 279 282 289 287 285 286 290 291 289 290 294 293 287 287 288 289 286 281 281 277 275 272 271 270 268 268 268 268 269 268 268 266 268 nan nan nan nan nan nan nan nan nan nan nan nan nan nan nan nan nan nan nan nan nan nan nan nan nan nan nan nan nan nan nan nan nan nan nan nan nan nan nan nan nan nan nan nan
nan nan nan nan nan nan nan nan 277 278 278 279 281 282 280 280 280 280 281 285 287 281 280 285 281 282 281 279 277 273 273 271 270 269 269 266 269 270 268 267 264 265 nan nan nan nan nan nan nan nan nan nan nan nan nan nan nan nan nan nan nan nan nan nan nan nan nan nan nan nan nan nan nan nan nan nan nan nan nan nan nan nan nan nan nan
nan nan nan nan nan nan nan nan nan nan 275 276 280 279 278 278 276 276 277 277 281 286 278 273 286 286 277 276 275 273 272 271 270 269 268 268 265 267 267 267 266 264 nan nan nan nan nan nan nan nan nan nan nan nan nan nan nan nan nan nan nan nan nan nan nan nan nan nan nan nan nan nan nan nan nan nan nan nan nan nan nan nan nan nan nan
nan nan nan nan nan nan nan nan nan nan nan nan 272 274 277 279 279 279 279 277 277 279 281 275 272 276 282 281 282 279 274 272 270 268 270 269 267 266 266 266 268 267 nan nan nan nan nan nan nan nan nan nan nan nan nan nan nan nan nan nan nan nan nan nan nan nan nan nan nan nan nan nan nan nan nan nan nan nan nan nan nan nan nan nan nan
nan nan nan nan nan nan nan nan nan nan nan nan nan nan 268 273 275 276 276 279 278 275 279 284 276 273 275 277 274 274 276 273 272 271 268 268 268 268 267 266 267 268 nan nan nan nan nan nan nan nan nan nan nan nan nan nan nan nan nan nan nan nan nan nan nan nan nan nan nan nan nan nan nan nan nan nan nan nan nan nan nan nan nan nan nan
nan nan nan nan nan nan nan nan nan nan nan nan nan nan nan nan nan 270 273 274 274 277 276 275 279 280 277 279 279 278 274 274 273 271 271 269 268 268 268 268 268 267 268 nan nan nan nan nan nan nan nan nan nan nan nan nan nan nan nan nan nan nan nan nan nan nan nan nan nan nan nan nan nan nan nan nan nan nan nan nan nan nan nan nan nan
nan nan nan nan nan nan nan nan nan nan nan nan nan nan nan 265 nan nan 267 268 271 273 274 276 277 275 275 276 277 276 274 276 275 275 273 271 270 269 268 268 268 268 268 nan nan nan nan nan nan nan nan nan nan nan nan nan nan nan nan nan nan nan nan nan nan nan nan nan nan nan nan nan nan nan nan nan nan nan nan nan nan nan nan nan nan
nan nan nan nan nan nan nan nan nan nan nan nan nan nan nan nan 268 268 267 268 269 270 271 272 274 275 276 277 278 277 277 276 277 276 274 273 272 272 271 269 269 268 nan nan nan nan nan nan nan nan nan nan nan nan nan nan nan nan nan nan nan nan nan nan nan nan nan nan nan nan nan nan nan nan nan nan nan nan nan nan nan nan nan nan nan
nan nan nan nan nan nan nan nan nan nan nan nan nan nan nan nan nan 274 272 270 270 271 270 271 272 273 273 274 275 277 278 277 277 277 277 277 275 273 272 271 268 nan nan nan nan nan nan nan nan nan nan nan nan nan nan nan nan nan nan nan nan nan nan nan nan nan nan nan nan nan nan nan nan nan nan nan nan nan nan nan nan nan nan nan nan
nan nan nan nan nan nan nan nan nan nan nan nan nan nan nan nan 268 268 268 267 266 263 262 261 261 262 266 268 271 276 279 280 280 278 277 276 276 276 275 272 272 nan nan nan nan nan nan nan nan nan nan nan nan nan nan nan nan nan nan nan nan nan nan nan nan nan nan nan nan nan nan nan nan nan nan nan nan nan nan nan nan nan nan nan nan
nan nan nan nan nan nan nan nan nan nan nan nan nan nan nan nan nan nan nan nan nan nan nan 262 261 262 262 263 263 262 261 263 268 269 273 277 278 278 275 273 272 273 nan nan nan nan nan nan nan nan nan nan nan nan nan nan nan nan nan nan nan nan nan nan nan nan nan nan nan nan nan nan nan nan nan nan nan nan nan nan nan nan nan nan nan
nan nan nan nan nan nan nan nan nan nan nan nan nan nan nan nan nan nan nan nan nan nan nan nan nan nan nan nan nan nan nan 264 265 266 267 265 266 267 nan nan nan nan nan nan nan nan nan nan nan nan nan nan nan nan nan nan nan nan nan nan nan nan nan nan nan nan nan nan nan nan nan nan nan nan nan nan nan nan nan nan nan nan nan nan nan
nan nan nan nan nan nan nan nan nan nan nan nan nan nan nan nan nan nan nan nan nan nan nan nan nan nan nan nan nan nan nan nan nan nan 265 265 264 nan nan nan nan nan nan nan nan nan nan nan nan nan nan nan nan nan nan nan nan nan nan nan nan nan nan nan nan nan nan nan nan nan nan nan nan nan nan nan nan nan nan nan nan nan nan nan nan
nan nan nan nan nan nan nan nan nan nan nan nan nan nan nan nan nan nan nan nan nan nan nan nan nan nan nan nan nan nan nan nan nan nan nan nan nan nan nan nan nan nan nan nan nan nan nan nan nan nan nan nan nan nan nan nan nan nan nan nan nan nan nan nan nan nan nan nan nan nan nan nan nan nan nan nan nan nan nan nan nan nan nan nan nan
nan nan nan nan nan nan nan nan nan nan nan nan nan nan nan nan nan nan nan nan nan nan nan nan nan nan nan nan nan nan nan nan nan nan nan nan nan nan nan nan nan nan nan nan nan nan nan nan nan nan nan nan nan nan nan nan nan nan nan nan nan nan nan nan nan nan nan nan nan nan nan nan nan nan nan nan nan nan nan nan nan nan nan nan nan
nan nan nan nan nan nan nan nan nan nan nan nan nan nan nan nan nan nan nan nan nan nan nan nan nan nan nan nan nan nan nan nan nan nan nan nan nan nan nan nan nan nan nan nan nan nan nan nan nan nan nan nan nan nan nan nan nan nan nan nan nan nan nan nan nan nan nan nan nan nan nan nan nan nan nan nan nan nan nan nan nan nan nan nan nan
nan nan nan nan nan nan nan nan nan nan nan nan nan nan nan nan nan nan nan nan nan nan nan nan nan nan nan nan nan nan nan nan nan nan nan nan nan nan nan nan nan nan nan nan nan nan nan nan nan nan nan nan nan nan nan nan nan nan nan nan nan nan nan nan nan nan nan nan nan nan nan nan nan nan nan nan nan nan nan nan nan nan nan nan nan
nan nan nan nan nan nan nan nan nan nan nan nan nan nan nan nan nan nan nan nan nan nan nan nan nan nan nan nan nan nan nan nan nan nan nan nan nan nan nan nan nan nan nan nan nan nan nan nan nan nan nan nan nan nan nan nan nan nan nan nan nan nan nan nan nan nan nan nan nan nan nan nan nan nan nan nan nan nan nan nan nan nan nan nan nan
nan nan nan nan nan nan nan nan nan nan nan nan nan nan nan nan nan nan nan nan nan nan nan nan nan nan nan nan nan nan nan nan nan nan nan nan nan nan nan nan nan nan nan nan nan nan nan nan nan nan nan nan nan nan nan nan nan nan nan nan nan nan nan nan nan nan nan nan nan nan nan nan nan nan nan nan nan nan nan nan nan nan nan nan nan
nan nan nan nan nan nan nan nan nan nan nan nan nan nan nan nan nan nan nan nan nan nan nan nan nan nan nan nan nan nan nan nan nan nan nan nan nan nan nan nan nan nan nan nan nan nan nan nan nan nan nan nan nan nan nan nan nan nan nan nan nan nan nan nan nan nan nan nan nan nan nan nan nan nan nan nan nan nan nan nan nan nan nan nan nan
nan nan nan nan nan nan nan nan nan nan nan nan nan nan nan nan nan nan nan nan nan nan nan nan nan nan nan nan nan nan nan nan nan nan nan nan nan nan nan nan nan nan nan nan nan nan nan nan nan nan nan nan nan nan nan nan nan nan nan nan nan nan nan nan nan nan nan nan nan nan nan nan nan nan nan nan nan nan nan nan nan nan nan nan nan
nan nan nan nan nan nan nan nan nan nan nan nan nan nan nan nan nan nan nan nan nan nan nan nan nan nan nan nan nan nan nan nan nan nan nan nan nan nan nan nan nan nan nan nan nan nan nan nan nan nan nan nan nan nan nan nan nan nan nan nan nan nan nan nan nan nan nan nan nan nan nan nan nan nan nan nan nan nan nan nan nan nan nan nan nan
nan nan nan nan nan nan nan nan nan nan nan nan nan nan nan nan nan nan nan nan nan nan nan nan nan nan nan nan nan nan nan nan nan nan nan nan nan nan nan nan nan nan nan nan nan nan nan nan nan nan nan nan nan nan nan nan nan nan nan nan nan nan nan nan nan nan nan nan nan nan nan nan nan nan nan nan nan nan nan nan nan nan nan nan nan
nan nan nan nan nan nan nan nan nan nan nan nan nan nan nan nan nan nan nan nan nan nan nan nan nan nan nan nan nan nan nan nan nan nan nan nan nan nan nan nan nan nan nan nan nan nan nan nan nan nan nan nan nan nan nan nan nan nan nan nan nan nan nan nan nan nan nan nan nan nan nan nan nan nan nan nan nan nan nan nan nan nan nan nan nan
nan nan nan nan nan nan nan nan nan nan nan nan nan nan nan nan nan nan nan nan nan nan nan nan nan nan nan nan nan nan nan nan nan nan nan nan nan nan nan nan nan nan nan nan nan nan nan nan nan nan nan nan nan nan nan nan nan nan nan nan nan nan nan nan nan nan nan nan nan nan nan nan nan nan nan nan nan nan nan nan nan nan nan nan nan